[[{"header":{"parameterUnit":"m.s-1","parameterCategory":1,"la1":30.2991,"la2":30.254,"lo1":-89.0895,"lo2":-89.0444,"dy":0.0017,"dx":0.0017,"nx":28,"ny":28,"refTime":"2023-08-28T21:00:00:Z","depth":0,"parameterNumber":2,"parameterNumberName":"U-component_of_WINDS"},"data":[0,0,0,0,0,0,0,0,0,0,0,0,0,0,0,0,0,0,0,0,0,0,0,0,0,0,0,0,0,0,0,0,0,0,0,0,0,0,0,0,0,0,0,0,0,0,0,0,0,0,0,0,0,0,0,0,0,0,-1.2495,-1.2497,0,-1.2639,-1.2641,-1.2643,-1.2644,-1.2643,-1.2641,-1.2639,-1.2791,-1.2797,-1.2803,0,0,0,0,0,0,0,0,0,0,0,0,0,-1.2225,-1.223,-1.2495,-1.2497,-1.2499,-1.2639,-1.2641,-1.2643,-1.2645,-1.2642,-1.264,-1.2638,-1.279,-1.2796,-1.2803,0,0,0,0,0,0,0,0,0,0,0,0,0,-1.2353,-1.2232,-1.2495,-1.2516,-1.252,-1.2639,-1.2641,-1.2644,-1.2645,-1.2642,-1.264,-1.2637,-1.2787,-1.2796,-1.2804,-1.2913,0,0,-1.2831,-1.2835,0,0,0,0,0,0,0,0,-1.2346,-1.2363,-1.2511,-1.2515,-1.2519,-1.2621,-1.2602,-1.2734,-1.2646,-1.2598,-1.2639,-1.2636,-1.2737,-1.275,-1.2783,-1.292,-1.2927,-1.2832,-1.2837,-1.2841,-1.2843,0,0,0,0,0,0,0,-1.2337,-1.2357,-1.2552,-1.2513,-1.2518,-1.252,-1.2535,-1.2627,-1.2681,-1.2602,-1.2602,-1.2619,-1.2739,-1.2775,-1.2787,-1.2929,-1.2831,-1.2839,-1.2844,-1.2848,-1.3165,-1.3168,0,0,0,0,0,0,-1.2323,-1.235,-1.2548,-1.2557,-1.2424,-1.2527,-1.2544,-1.2591,-1.268,-1.2691,-1.2621,-1.2618,-1.2761,-1.2777,-1.2792,-1.2927,-1.284,-1.2849,-1.2854,-1.3162,-1.3166,-1.3169,0,0,0,0,0,0,-1.2318,-1.2341,-1.2542,-1.2453,-1.2479,-1.2535,-1.2588,-1.2595,-1.2631,-1.2695,-1.2705,-1.2648,-1.276,-1.278,-1.2883,-1.2933,-1.2852,-1.286,-1.3158,-1.3163,-1.3167,-1.3197,0,0,0,0,0,0,-1.231,-1.2339,-1.238,-1.2454,-1.2484,-1.2629,-1.259,-1.26,-1.2646,-1.2644,-1.2723,-1.2733,-1.2759,-1.287,-1.2892,-1.2943,-1.2867,-1.3154,-1.316,-1.3166,-1.3192,-1.3203,-1.3211,0,0,0,0,0,-1.23,-1.2383,-1.2382,-1.2406,-1.2536,-1.2632,-1.2649,-1.2676,-1.265,-1.2692,-1.2733,-1.2731,-1.2923,-1.2881,-1.2905,-1.296,-1.3151,-1.3158,-1.3165,-1.3188,-1.3201,-1.3211,0,0,0,0,0,0,-1.2315,-1.2393,-1.2393,-1.2502,-1.256,-1.2632,-1.2686,-1.2688,-1.2757,-1.2752,-1.2784,-1.2802,-1.2905,-1.2942,-1.2894,-1.3071,-1.3034,-1.3046,-1.3043,-1.3055,-1.3065,-1.3055,-1.2874,0,0,0,0,0,-1.233,-1.24,-1.2466,-1.2556,-1.2585,-1.263,-1.2673,-1.2689,-1.2751,-1.2776,-1.2825,-1.2887,-1.2961,-1.301,-1.3082,-1.3197,-1.3215,-1.3246,-1.3256,-1.3264,-1.3275,-1.3341,-1.3356,-1.3193,-1.3193,-1.3193,0,0,-1.2364,-1.2415,-1.2458,-1.256,-1.2607,-1.2681,-1.2651,-1.273,-1.2786,-1.2789,-1.289,-1.2927,-1.2999,-1.3108,-1.3159,-1.3143,-1.3324,-1.3273,-1.3278,-1.3286,-1.335,-1.3365,-1.3379,-1.3198,-1.3197,-1.3196,0,0,-1.2463,-1.2508,-1.2589,-1.2636,-1.2707,-1.2737,-1.2756,-1.2828,-1.2853,-1.2954,-1.2958,-1.3025,-1.3152,-1.3204,-1.3246,-1.3365,-1.3366,-1.3387,-1.3439,-1.3502,-1.3515,-1.3527,-1.3572,-1.3587,-1.3398,-1.3398,-1.3398,0,-1.2496,-1.2606,-1.263,-1.271,-1.2756,-1.276,-1.2843,-1.2888,-1.298,-1.3012,-1.2991,-1.3152,-1.32,-1.3323,-1.3352,-1.3385,-1.3411,-1.338,-1.3511,-1.3523,-1.3534,-1.3577,-1.3594,-1.34,-1.34,-1.34,-1.3399,0,-1.2645,-1.2721,-1.2778,-1.2865,-1.2917,-1.2997,-1.3036,-1.3086,-1.3096,-1.3129,-1.3233,-1.329,-1.3375,-1.3405,-1.3417,-1.353,-1.3518,-1.3504,-1.3468,-1.3552,-1.3593,-1.3609,-1.3404,-1.3403,-1.3402,-1.3401,0,0,-1.2759,-1.2858,-1.2879,-1.2919,-1.2997,-1.3057,-1.3139,-1.322,-1.3263,-1.3326,-1.3397,-1.3504,-1.3492,-1.354,-1.3558,-1.3613,-1.3706,-1.3593,-1.3595,-1.3614,-1.3838,-1.385,-1.3869,-1.3706,-1.371,-1.3712,-1.3833,0,-1.2869,-1.3012,-1.3037,-1.3164,-1.3236,-1.324,-1.3312,-1.3369,-1.3401,-1.3468,-1.3504,-1.3581,-1.3557,-1.3587,-1.3642,-1.3683,-1.3752,-1.3675,-1.3776,-1.3779,-1.376,-1.389,-1.3903,-1.4014,-1.3849,-1.3852,-1.3853,0,-1.3016,-1.3082,-1.3215,-1.3285,-1.3316,-1.338,-1.3457,-1.352,-1.3585,-1.3605,-1.3658,-1.367,-1.3757,-1.3715,-1.3837,-1.3783,-1.3826,-1.3853,-1.3858,-1.387,-1.3823,-1.3909,-1.405,-1.4067,-1.3879,-1.3877,-1.3875,0,-1.3089,-1.3211,-1.3307,-1.3341,-1.3423,-1.3469,-1.3505,-1.3567,-1.3615,-1.3683,-1.3715,-1.3792,-1.3835,-1.3895,-1.3928,-1.3894,-1.4048,-1.4008,-1.4069,-1.4069,-1.4104,-1.4102,-1.4257,-1.4127,-1.4126,-1.4126,-1.4126,0,-1.3211,-1.3293,-1.3341,-1.34,-1.3493,-1.352,-1.3612,-1.3648,-1.3704,-1.3772,-1.378,-1.3844,-1.3882,-1.3952,-1.3978,-1.4076,-1.4095,-1.4115,-1.4122,-1.4116,-1.4114,-1.4147,-1.4141,-1.4131,-1.413,-1.4129,-1.4128,0,-1.3309,-1.3344,-1.345,-1.3519,-1.3538,-1.3604,-1.3664,-1.3723,-1.3755,-1.3841,-1.3863,-1.3913,-1.3996,-1.4034,-1.4136,-1.4154,-1.4267,-1.4267,-1.4245,-1.4248,-1.4308,-1.4303,-1.4491,-1.4518,-1.4368,-1.4369,-1.437,0,-1.3386,-1.3449,-1.3525,-1.357,-1.3608,-1.3681,-1.3729,-1.3759,-1.3809,-1.3888,-1.3938,-1.4021,-1.4089,-1.4222,-1.4269,-1.4348,-1.4352,-1.4412,-1.4364,-1.4357,-1.4356,-1.4353,-1.4361,-1.4422,-1.4423,-1.4425,-1.4425,0,-1.3519,-1.3533,-1.3601,-1.3677,-1.3734,-1.3795,-1.3854,-1.3891,-1.3931,-1.3987,-1.4071,-1.4124,-1.4228,-1.4311,-1.4393,-1.4433,-1.4438,-1.444,-1.4459,-1.4455,-1.4441,-1.4452,-1.4272,-1.4436,-1.4435,-1.4434,-1.4434,-1.4433,-1.3611,-1.3668,-1.373,-1.3807,-1.3854,-1.391,-1.3969,-1.4008,-1.4078,-1.4164,-1.4177,-1.4268,-1.4333,-1.4443,-1.4486,-1.4559,-1.4544,-1.4571,-1.4578,-1.4585,-1.459,-1.4427,-1.4573,-1.4573,-1.4573,-1.4573,-1.4572,0,-1.3746,-1.3786,-1.3856,-1.3939,-1.4,-1.3995,-1.4061,-1.4113,-1.4192,-1.4251,-1.4318,-1.4415,-1.4496,-1.4549,-1.4631,-1.4679,-1.4683,-1.47,-1.4698,-1.4708,-1.4597,-1.4573,-1.4695,-1.4695,-1.4695,-1.4695,-1.4695,-1.4695,-1.3824,-1.3921,-1.3943,-1.4064,-1.4104,-1.4192,-1.423,-1.4283,-1.433,-1.4438,-1.4505,-1.4538,-1.4595,-1.4682,-1.4756,-1.477,-1.4801,-1.4819,-1.4833,-1.4728,-1.4716,-1.4703,-1.4682,-1.4825,-1.4825,-1.4938,-1.4939,-1.494]},{"header":{"parameterUnit":"m.s-1","parameterCategory":1,"la1":30.2991,"la2":30.254,"lo1":-89.0895,"lo2":-89.0444,"dy":0.0017,"dx":0.0017,"nx":28,"ny":28,"refTime":"2023-08-28T21:00:00:Z","depth":0,"parameterNumber":3,"parameterNumberName":"V-component_of_WINDS"},"data":[0,0,0,0,0,0,0,0,0,0,0,0,0,0,0,0,0,0,0,0,0,0,0,0,0,0,0,0,0,0,0,0,0,0,0,0,0,0,0,0,0,0,0,0,0,0,0,0,0,0,0,0,0,0,0,0,0,0,-5.7381,-5.7382,0,-5.7486,-5.7487,-5.7488,-5.7416,-5.7413,-5.741,-5.7407,-5.7508,-5.7513,-5.7519,0,0,0,0,0,0,0,0,0,0,0,0,0,-5.711,-5.7115,-5.738,-5.7382,-5.7383,-5.7486,-5.7487,-5.7489,-5.7417,-5.7413,-5.7409,-5.7405,-5.7506,-5.7512,-5.7519,0,0,0,0,0,0,0,0,0,0,0,0,0,-5.7222,-5.7117,-5.738,-5.736,-5.7359,-5.7486,-5.7487,-5.7489,-5.7418,-5.7413,-5.7408,-5.7404,-5.7504,-5.7512,-5.752,-5.767,0,0,-5.7546,-5.755,0,0,0,0,0,0,0,0,-5.7216,-5.7232,-5.7362,-5.7362,-5.7361,-5.7433,-5.7429,-5.755,-5.7419,-5.7395,-5.7407,-5.7401,-5.7486,-5.7496,-5.7526,-5.7675,-5.7679,-5.7547,-5.7552,-5.7556,-5.7558,0,0,0,0,0,0,0,-5.7208,-5.7227,-5.7422,-5.7363,-5.7363,-5.7343,-5.7354,-5.7451,-5.7466,-5.7397,-5.7392,-5.7406,-5.7485,-5.7518,-5.7528,-5.7681,-5.7547,-5.7554,-5.756,-5.7563,-5.7957,-5.7963,0,0,0,0,0,0,-5.7203,-5.7221,-5.7419,-5.7425,-5.7275,-5.7352,-5.7364,-5.7415,-5.7465,-5.7468,-5.741,-5.7402,-5.7506,-5.7518,-5.7531,-5.771,-5.7556,-5.7564,-5.7569,-5.7952,-5.7959,-5.7964,0,0,0,0,0,0,-5.7198,-5.7222,-5.7414,-5.7322,-5.7345,-5.7362,-5.742,-5.7419,-5.7452,-5.7475,-5.7477,-5.7441,-5.7503,-5.7519,-5.7637,-5.7713,-5.7568,-5.7576,-5.7946,-5.7954,-5.7962,-5.807,0,0,0,0,0,0,-5.719,-5.722,-5.7279,-5.7324,-5.735,-5.7521,-5.7424,-5.7425,-5.7468,-5.7459,-5.7505,-5.7508,-5.75,-5.7624,-5.7645,-5.7722,-5.7582,-5.7939,-5.795,-5.7959,-5.806,-5.8081,-5.8099,0,0,0,0,0,-5.7181,-5.7304,-5.7282,-5.7307,-5.7425,-5.7525,-5.754,-5.753,-5.7475,-5.7533,-5.7547,-5.7507,-5.7701,-5.7637,-5.766,-5.774,-5.7934,-5.7947,-5.7958,-5.8051,-5.8077,-5.8098,0,0,0,0,0,0,-5.7264,-5.7309,-5.7286,-5.7427,-5.7474,-5.7513,-5.7586,-5.7558,-5.7618,-5.7607,-5.759,-5.7601,-5.7724,-5.7744,-5.7671,-5.7888,-5.7809,-5.7826,-5.7871,-5.7896,-5.7915,-5.7907,-5.7589,0,0,0,0,0,-5.73,-5.738,-5.7414,-5.7535,-5.756,-5.7569,-5.7612,-5.7601,-5.7647,-5.7665,-5.7688,-5.7733,-5.7803,-5.785,-5.7917,-5.8062,-5.807,-5.8128,-5.8148,-5.8164,-5.8179,-5.8257,-5.8283,-5.8004,-5.8004,-5.8004,0,0,-5.7372,-5.7407,-5.7458,-5.7553,-5.7587,-5.7668,-5.7586,-5.7675,-5.7735,-5.7678,-5.7791,-5.781,-5.7858,-5.799,-5.8049,-5.801,-5.8258,-5.8179,-5.8192,-5.8198,-5.8272,-5.8298,-5.8322,-5.8012,-5.8011,-5.8009,0,0,-5.7547,-5.7582,-5.7687,-5.7723,-5.7777,-5.7783,-5.7808,-5.7853,-5.7864,-5.7978,-5.7937,-5.8006,-5.8129,-5.8165,-5.8199,-5.8388,-5.8353,-5.841,-5.8512,-5.8588,-5.861,-5.8629,-5.8697,-5.8721,-5.8425,-5.8425,-5.8425,0,-5.763,-5.7754,-5.7743,-5.7837,-5.7879,-5.7835,-5.794,-5.7975,-5.8047,-5.8076,-5.8032,-5.8185,-5.8214,-5.8354,-5.8401,-5.843,-5.8457,-5.8405,-5.8608,-5.8628,-5.8645,-5.8709,-5.8735,-5.8432,-5.8431,-5.843,-5.843,0,-5.7853,-5.7939,-5.8017,-5.8091,-5.8142,-5.824,-5.8244,-5.8296,-5.828,-5.829,-5.8406,-5.844,-5.8512,-5.8544,-5.8529,-5.8682,-5.8657,-5.8611,-5.853,-5.8679,-5.8739,-5.8763,-5.8441,-5.8439,-5.8437,-5.8435,0,0,-5.8082,-5.8151,-5.8179,-5.8212,-5.8269,-5.8334,-5.843,-5.8504,-5.8549,-5.86,-5.8679,-5.8785,-5.8743,-5.8782,-5.877,-5.8837,-5.8985,-5.8783,-5.8783,-5.8819,-5.9155,-5.919,-5.9218,-5.8961,-5.8966,-5.897,-5.9151,0,-5.826,-5.8431,-5.8425,-5.8583,-5.8662,-5.8621,-5.8704,-5.8747,-5.8758,-5.8825,-5.8836,-5.8912,-5.8851,-5.8875,-5.8939,-5.8953,-5.9052,-5.894,-5.9033,-5.9037,-5.9023,-5.9249,-5.9286,-5.9456,-5.9174,-5.9178,-5.9181,0,-5.849,-5.8552,-5.8719,-5.8765,-5.8798,-5.8873,-5.894,-5.9006,-5.9052,-5.9056,-5.9101,-5.9078,-5.9173,-5.9091,-5.9221,-5.9145,-5.9183,-5.9195,-5.9202,-5.921,-5.9118,-5.9264,-5.951,-5.9535,-5.9218,-5.9215,-5.9212,0,-5.8641,-5.8765,-5.8882,-5.8911,-5.8967,-5.9021,-5.9047,-5.9089,-5.9134,-5.9192,-5.922,-5.9288,-5.9324,-5.9376,-5.9372,-5.9312,-5.9504,-5.9421,-5.9508,-5.9509,-5.955,-5.9548,-5.9806,-5.9575,-5.9574,-5.9574,-5.9573,0,-5.884,-5.8943,-5.8951,-5.9022,-5.9137,-5.9128,-5.9241,-5.926,-5.9298,-5.9371,-5.9338,-5.9407,-5.9397,-5.9465,-5.9462,-5.957,-5.9586,-5.9591,-5.9589,-5.9594,-5.9594,-5.9619,-5.9607,-5.9581,-5.9579,-5.9578,-5.9577,0,-5.9027,-5.9036,-5.9161,-5.9204,-5.9218,-5.93,-5.9336,-5.9403,-5.9412,-5.9505,-5.9526,-5.954,-5.9619,-5.962,-5.9709,-5.9707,-5.9839,-5.9823,-5.9824,-5.9821,-5.9909,-5.99,-6.0192,-6.0229,-5.9974,-5.9976,-5.9978,0,-5.9154,-5.9233,-5.9286,-5.9335,-5.9364,-5.9441,-5.9488,-5.9482,-5.9531,-5.9591,-5.965,-5.9726,-5.9787,-5.9914,-5.9931,-5.9999,-5.9984,-6.0082,-5.9994,-5.9997,-5.9986,-5.9982,-5.9989,-6.0099,-6.0102,-6.0104,-6.0106,0,-5.9377,-5.9378,-5.9448,-5.952,-5.9577,-5.9633,-5.9684,-5.9724,-5.9724,-5.978,-5.9862,-5.991,-6.0002,-6.0078,-6.0144,-6.0167,-6.0137,-6.0134,-6.0157,-6.0164,-6.0161,-6.0164,-5.9871,-6.0127,-6.0125,-6.0123,-6.0122,-6.0121,-5.9538,-5.9607,-5.9656,-5.9735,-5.9773,-5.9822,-5.9888,-5.9907,-5.9976,-6.0052,-6.0044,-6.0135,-6.0178,-6.0265,-6.0294,-6.0363,-6.0329,-6.0363,-6.0372,-6.038,-6.039,-6.0151,-6.0375,-6.0374,-6.0373,-6.0373,-6.0373,0,-5.976,-5.979,-5.9863,-5.9937,-5.9999,-5.9968,-6.0023,-6.0076,-6.0157,-6.0202,-6.0264,-6.0357,-6.0431,-6.0454,-6.0524,-6.0575,-6.0563,-6.0594,-6.059,-6.0596,-6.0417,-6.0389,-6.0603,-6.0603,-6.0603,-6.0603,-6.0603,-6.0603,-5.9883,-5.9998,-6.0005,-6.0139,-6.0167,-6.0258,-6.0292,-6.0337,-6.0373,-6.048,-6.0542,-6.0558,-6.0593,-6.0667,-6.0732,-6.0737,-6.0764,-6.0801,-6.08,-6.0632,-6.0609,-6.0587,-6.0561,-6.0807,-6.0807,-6.0973,-6.0975,-6.0976]}]]